Regional Weather Roundup
Issued by NWS

Home | Current Version | Previous Version | Graphics & Text | Print | Product List | Glossary On
Versions: 1 2 3 4 5 6 7 8 9 10 11 12 13 14 15 16 17 18 19 20 21 22 23 24 25 26 27 28 29 30 31 32 33 34 35 36 37 38 39 40 41 42 43 44 45 46 47 48 49 50
000
ASUS45 KPSR 301910
RWRAZ

ARIZONA REGIONAL HOURLY WEATHER ROUNDUP
NATIONAL WEATHER SERVICE PHOENIX AZ
1200 PM MST FRI JAN 30 2015

NOTE: FAIR INDICATES FEW OR NO CLOUDS BELOW 12,000 FEET WITH NO
SIGNIFICANT WEATHER AND/OR OBSTRUCTIONS TO VISIBILITY.

AZZ001>003-036-302000-
NORTHWEST ARIZONA

CITY           SKY/WX    TMP DP  RH WIND       PRES   REMARKS
BULLHEAD CITY  CLOUDY    57  50  77 N12G20    29.91S
KINGMAN        CLOUDY    48  46  93 NE7       29.90F
$$

AZZ004>008-015-016-018-302000-
NORTH CENTRAL ARIZONA

CITY           SKY/WX    TMP DP  RH WIND       PRES   REMARKS
GRAND CANYON   CLOUDY    39  37  92 E10G18    29.98F WCI  32
PRESCOTT       CLOUDY    48  46  93 SE13G20   29.93F
FLAGSTAFF      LGT RAIN  38  36  92 NE6       29.99F FOG     WCI  33
PAYSON         LGT RAIN  45  43  93 VRB6G14   30.00F
$$

AZZ009>014-017-302000-
NORTHEAST ARIZONA

CITY           SKY/WX    TMP DP  RH WIND       PRES   REMARKS
WINSLOW        CLOUDY    46  43  89 E15       29.99F
SAINT JOHNS    LGT RAIN  45  42  89 E10       30.00F
WINDOW ROCK    LGT SNOW  34  31  88 CALM      30.09F VSB 3/4
SHOW LOW       LGT RAIN  41  37  87 S16G22    30.02F
$$

AZZ023-302000-
GREATER PHOENIX AREA

CITY           SKY/WX    TMP DP  RH WIND       PRES   REMARKS
PHOENIX        CLOUDY    57  56  96 NE9       29.88F FOG
BUCKEYE          N/A     57  57 100 S3        29.91F
GLENDALE       LGT RAIN  57  57 100 E7        29.91F
LUKE AFB       LGT RAIN  58  57  97 S7        29.89S FOG
DEER VALLEY    LGT RAIN  56  55  97 E6        29.89F
SCOTTSDALE     LGT RAIN  56  53  90 SE3       29.91F
MESA-FALCON    CLOUDY    54  54 100 N9        29.89F
MESA-GATEWAY   RAIN      55  55 100 CALM      29.92F
CHANDLER       LGT RAIN  57  57 100 E10       29.90F
$$

AZZ027-028-302000-
SOUTHWEST MARICOPA COUNTY AND PINAL COUNTY

CITY           SKY/WX    TMP DP  RH WIND       PRES   REMARKS
CASA GRANDE    CLOUDY    57  54  88 CALM      29.90F
GILA BEND      CLOUDY    58  57  95 SW7       29.91F
$$

AZZ503-504-507>509-302000-
SOUTHEAST ARIZONA

CITY           SKY/WX    TMP DP  RH WIND       PRES   REMARKS
TUCSON         LGT RAIN  57  53  86 E14       29.93F
DAVIS-MONTHAN  LGT RAIN  56  55  96 E13       29.92S
RYAN FIELD       N/A     59  55  88 SE12      29.92F
NOGALES        LGT RAIN  54  52  93 S7        29.95F FOG
SIERRA VISTA   LGT RAIN  50  48  93 SE14G22   29.96F
DOUGLAS        LGT RAIN  50  46  86 SE18      30.02F
SAFFORD        LGT RAIN  47  45  93 S9        30.05F
$$

AZZ020-021-025-026-031-302000-
SOUTHWEST ARIZONA

CITY           SKY/WX    TMP DP  RH WIND       PRES   REMARKS
YUMA           PTSUNNY   66  53  63 NW7       29.91F
$$

CAZ031-033-041-043-047-048-061-302000-
SOUTHERN CALIFORNIA

CITY           SKY/WX    TMP DP  RH WIND       PRES   REMARKS
DOWNTOWN L.A.  CLOUDY    66  50  56 CALM      29.91F
L.A. AIRPORT   CLOUDY    65  51  60 CALM      29.92F
SAN DIEGO      LGT RAIN  63  53  70 W3        29.95F
BURBANK        PTSUNNY   63  53  70 E6        29.91F
ONTARIO        CLOUDY    64  46  52 W7        29.92F
RIVERSIDE      CLOUDY    65  46  50 SE3       29.92F
PALM SPRINGS   LGT RAIN  64  49  57 SW5       29.96S
EL CENTRO NAS  PTSUNNY   66  51  58 NW7       29.92F
IMPERIAL       CLOUDY    65  52  62 NW7       29.91F
BLYTHE         PTSUNNY   62  56  80 S6        29.91F
NEEDLES        CLOUDY    61  50  67 NE10      29.90F
$$

NVZ020-UTZ003-302000-
SOUTHERN NEVADA-UTAH

CITY           SKY/WX    TMP DP  RH WIND       PRES   REMARKS
LAS VEGAS      LGT RAIN  53  45  74 NW9       29.90F
SALT LAKE CITY CLOUDY    42  35  76 CALM      30.09F
$$

NMZ009-TXZ055-302000-
NEW MEXICO-WEST TEXAS

CITY           SKY/WX    TMP DP  RH WIND       PRES   REMARKS
ALBUQUERQUE    FLURRIES  35  31  85 NE6       30.23F WCI  30
EL PASO        CLOUDY    46  36  68 E13       30.19F
$$


........................KEY........................
SKY/WX - SKY CONDITION/WEATHER
TMP    - TEMPERATURE IN FAHRENHEIT
DP     - DEW POINT IN FAHRENHEIT
RH     - RELATIVE HUMIDITY IN PERCENT
WIND   - DIRECTION AND SPEED IN MILES PER HOUR (MPH)
VRB    - VARIABLE WIND DIRECTION
PRES   - MEAN SEA LEVEL PRESSURE IN INCHES OF MERCURY
         F - FALLING PRESSURE   R - RISING PRESSURE
         S - STEADY PRESSURE
VSB    - VISIBILITY IN MILES
HX     - HEAT INDEX IN FAHRENHEIT
WCI    - WIND CHILL INDEX IN FAHRENHEIT
TC     - TEMPERATURE IN CELSIUS WHICH IS ALSO KNOWN AS
         TEMPERATURE IN CENTIGRADE
AFB    - AIR FORCE BASE
         LUKE AFB IS LUKE AIR FORCE BASE
         DAVIS-MONTHAN IS DAVIS-MONTHAN AIR FORCE BASE
NAS    - NAVAL AIR STATION
         EL CENTRO NAS IS EL CENTRO NAVAL AIR STATION
N/A    - NOT AVAILABLE


USA.gov is the U.S. government's official web portal to all federal, state and local government web resources and services.